Iuka, KS

10:41 AM CST on February 27, 2017 (GMT -0600)
Pratt Industrial

Weather History for KPTT - February, 2013

Change the Weather History Date:

Thursday, February 28, 2013

  Actual Average (KP28) Record (KP28)
Temperature  
Mean Temperature 28 °F -  
Max Temperature 35 °F 48 °F 79 °F (2006)
Min Temperature 21 °F 25 °F 3 °F (1962)
Degree Days  
Heating Degree Days 37    
Moisture  
Dew Point 24 °F    
Average Humidity 84    
Maximum Humidity 100    
Minimum Humidity 69    
Precipitation  
Precipitation 0.00 in - - ()
Sea Level Pressure  
Sea Level Pressure 30.22 in    
Wind  
Wind Speed 11 mph (NW)    
Max Wind Speed 20 mph    
Max Gust Speed 24 mph    
Visibility 10 miles    
Events      
Averages and records for this station are not official NWS values.
T = Trace of Precipitation, MM = Missing Value Source: NWS Daily Summary

Daily Weather History Graph

Daily Weather History Graph

Search for Another Location

Airport or City:

Trip Planner

Search our weather history database for the weather conditions in past years. The results will help you decide how hot, cold, wet, or windy it might be!

Date:

Astronomy

Feb. 28, 2013 Rise Set
Actual Time 7:07 AM CST 6:27 PM CST
Civil Twilight 6:41 AM CST 6:54 PM CST
Nautical Twilight 6:10 AM CST 7:24 PM CST
Astronomical Twilight 5:40 AM CST 7:55 PM CST
Moon 9:51 PM CST (2/28) 8:22 AM CST (2/28)
Length of Visible Light 12h 13m
Length of Day
11h 20m
Waning Gibbous, 90% of the Moon is Illuminated
Feb 28
Waning Gibbous
Mar 4
Last Quarter
Mar 11
New
Mar 19
First Quarter
Mar 27
Full

Hourly Weather History & Observations

Time (CST) Temp. Windchill Dew Point Humidity Pressure Visibility Wind Dir Wind Speed Gust Speed Precip Events Conditions
12:15 AM 26.6 °F 16.2 °F 23.0 °F 86% 30.19 in 10.0 mi WNW 11.5 mph - N/A   Clear
12:35 AM 24.8 °F 13.4 °F 21.2 °F 86% 30.19 in 10.0 mi WNW 12.7 mph - N/A   Clear
12:55 AM 24.8 °F 14.0 °F 21.2 °F 86% 30.19 in 10.0 mi WNW 11.5 mph - N/A   Clear
1:15 AM 24.8 °F 13.4 °F 21.2 °F 86% 30.20 in 10.0 mi WNW 12.7 mph - N/A   Clear
1:35 AM 23.0 °F 11.1 °F 21.2 °F 93% 30.20 in 10.0 mi NW 12.7 mph - N/A   Clear
2:15 AM 26.6 °F 14.7 °F 21.2 °F 80% 30.20 in 10.0 mi NW 15.0 mph - N/A   Clear
2:35 AM 26.6 °F 14.7 °F 21.2 °F 80% 30.20 in 10.0 mi NW 15.0 mph - N/A   Clear
2:55 AM 24.8 °F 11.9 °F 21.2 °F 86% 30.20 in 10.0 mi NW 16.1 mph - N/A   Clear
3:15 AM 24.8 °F 13.4 °F 21.2 °F 86% 30.20 in 10.0 mi NW 12.7 mph - N/A   Clear
3:35 AM 24.8 °F 12.4 °F 21.2 °F 86% 30.19 in 10.0 mi NW 15.0 mph - N/A   Clear
3:55 AM 24.8 °F 12.9 °F 21.2 °F 86% 30.19 in 10.0 mi NW 13.8 mph - N/A   Clear
4:15 AM 23.0 °F 11.1 °F 21.2 °F 93% 30.19 in 10.0 mi NW 12.7 mph - N/A   Clear
4:35 AM 23.0 °F 10.6 °F 21.2 °F 93% 30.19 in 10.0 mi NW 13.8 mph - N/A   Clear
4:55 AM 23.0 °F 10.6 °F 19.4 °F 86% 30.19 in 10.0 mi NW 13.8 mph - N/A   Clear
5:15 AM 23.0 °F 10.6 °F 19.4 °F 86% 30.20 in 10.0 mi NW 13.8 mph - N/A   Clear
5:35 AM 21.2 °F 9.5 °F 19.4 °F 93% 30.21 in 10.0 mi NW 11.5 mph - N/A   Clear
5:55 AM 23.0 °F 11.7 °F 19.4 °F 86% 30.21 in 10.0 mi NW 11.5 mph - N/A   Clear
6:15 AM 21.2 °F 9.5 °F 19.4 °F 93% 30.21 in 10.0 mi NNW 11.5 mph - N/A   Clear
6:35 AM 21.2 °F 9.5 °F 19.4 °F 93% 30.21 in 10.0 mi NNW 11.5 mph - N/A   Clear
6:55 AM 23.0 °F 11.1 °F 19.4 °F 86% 30.21 in 10.0 mi NNW 12.7 mph - N/A   Clear
7:15 AM 23.0 °F 9.2 °F 19.4 °F 86% 30.20 in 10.0 mi North 17.3 mph - N/A   Clear
7:35 AM 23.0 °F 11.1 °F 19.4 °F 86% 30.21 in 10.0 mi NNW 12.7 mph - N/A   Clear
7:55 AM 23.0 °F 11.1 °F 19.4 °F 86% 30.21 in 10.0 mi NNW 12.7 mph - N/A   Clear
8:15 AM 23.0 °F 11.7 °F 19.4 °F 86% 30.22 in 10.0 mi NW 11.5 mph - N/A   Clear
8:35 AM 23.0 °F 10.6 °F 19.4 °F 86% 30.23 in 10.0 mi NW 13.8 mph - N/A   Clear
8:55 AM 24.8 °F 12.9 °F 19.4 °F 80% 30.24 in 10.0 mi NW 13.8 mph - N/A   Clear
9:15 AM 26.6 °F 15.2 °F 21.2 °F 80% 30.25 in 10.0 mi NW 13.8 mph - N/A   Clear
9:35 AM 28.4 °F 16.6 °F 21.2 °F 74% 30.24 in 10.0 mi NW 16.1 mph - N/A   Clear
9:55 AM 30.2 °F 19.3 °F 23.0 °F 75% 30.24 in 10.0 mi NW 15.0 mph - N/A   Clear
10:15 AM 30.2 °F 19.8 °F 23.0 °F 75% 30.25 in 10.0 mi NW 13.8 mph - N/A   Clear
10:35 AM 32.0 °F 22.1 °F 23.0 °F 69% 30.25 in 10.0 mi NW 13.8 mph - N/A   Clear
10:55 AM 32.0 °F 21.2 °F 24.8 °F 75% 30.25 in 10.0 mi NW 16.1 mph 21.9 mph N/A   Clear
11:15 AM 32.0 °F 20.1 °F 24.8 °F 75% 30.26 in 10.0 mi NW 19.6 mph 24.2 mph N/A   Clear
11:35 AM 32.0 °F 20.8 °F 24.8 °F 75% 30.26 in 10.0 mi NNW 17.3 mph - N/A   Clear
11:55 AM 33.8 °F 22.8 °F 26.6 °F 75% 30.26 in 10.0 mi NNW 18.4 mph - N/A   Clear
12:35 PM 35.6 °F 26.2 °F 26.6 °F 70% 30.25 in 10.0 mi NNW 15.0 mph - N/A   Clear
12:55 PM 35.6 °F 25.9 °F 26.6 °F 70% 30.24 in 10.0 mi NNW 16.1 mph - N/A   Clear
1:15 PM 35.6 °F 27.1 °F 26.6 °F 70% 30.23 in 10.0 mi NNW 12.7 mph - N/A   Clear
1:35 PM 35.6 °F 26.2 °F 26.6 °F 70% 30.23 in 10.0 mi NNW 15.0 mph - N/A   Clear
1:55 PM 35.6 °F 28.0 °F 28.4 °F 75% 30.23 in 10.0 mi NNW 10.4 mph - N/A   Clear
2:15 PM 35.6 °F 28.0 °F 28.4 °F 75% 30.22 in 10.0 mi NNW 10.4 mph - N/A   Clear
2:35 PM 35.6 °F 26.6 °F 28.4 °F 75% 30.22 in 10.0 mi NNW 13.8 mph - N/A   Clear
2:55 PM 35.6 °F 27.5 °F 28.4 °F 75% 30.22 in 10.0 mi North 11.5 mph - N/A   Clear
3:15 PM 35.6 °F 26.6 °F 28.4 °F 75% 30.22 in 10.0 mi NNW 13.8 mph - N/A   Clear
3:35 PM 35.6 °F 27.1 °F 28.4 °F 75% 30.21 in 10.0 mi NNW 12.7 mph - N/A   Clear
3:55 PM 35.6 °F 27.5 °F 28.4 °F 75% 30.21 in 10.0 mi NNW 11.5 mph - N/A   Clear
4:15 PM 35.6 °F 28.6 °F 28.4 °F 75% 30.21 in 10.0 mi NNW 9.2 mph - N/A   Clear
4:35 PM 35.6 °F - 28.4 °F 75% 30.21 in 10.0 mi Calm Calm - N/A   Clear
4:55 PM 33.8 °F 27.7 °F 28.4 °F 81% 30.21 in 10.0 mi NNW 6.9 mph - N/A   Clear
5:15 PM 33.8 °F 27.7 °F 28.4 °F 81% 30.21 in 10.0 mi NNW 6.9 mph - N/A   Clear
5:35 PM 33.8 °F 27.0 °F 28.4 °F 81% 30.21 in 10.0 mi NNW 8.1 mph - N/A   Clear
5:55 PM 33.8 °F 27.0 °F 28.4 °F 81% 30.21 in 10.0 mi NNW 8.1 mph - N/A   Clear
6:15 PM 32.0 °F 25.6 °F 28.4 °F 87% 30.21 in 10.0 mi NNW 6.9 mph - N/A   Clear
6:35 PM 32.0 °F - 28.4 °F 87% 30.22 in 10.0 mi Calm Calm - N/A   Clear
6:55 PM 30.2 °F - 26.6 °F 86% 30.21 in 10.0 mi Calm Calm - N/A   Clear
7:15 PM 30.2 °F - 26.6 °F 86% 30.21 in 10.0 mi Calm Calm - N/A   Clear
7:35 PM 30.2 °F - 26.6 °F 86% 30.22 in 10.0 mi Calm Calm - N/A   Clear
7:55 PM 30.2 °F - 26.6 °F 86% 30.22 in 10.0 mi Calm Calm - N/A   Clear
8:15 PM 28.4 °F 21.2 °F 26.6 °F 93% 30.22 in 10.0 mi North 6.9 mph - N/A   Clear
8:35 PM 26.6 °F - 24.8 °F 93% 30.22 in 10.0 mi Calm Calm - N/A   Clear
8:55 PM 26.6 °F - 24.8 °F 93% 30.23 in 10.0 mi Calm Calm - N/A   Clear
9:15 PM 23.0 °F 15.8 °F 23.0 °F 100% 30.23 in 10.0 mi North 5.8 mph - N/A   Clear
9:35 PM 24.8 °F 19.1 °F 23.0 °F 93% 30.23 in 10.0 mi North 4.6 mph - N/A   Scattered Clouds
9:55 PM 24.8 °F 19.1 °F 23.0 °F 93% 30.23 in 10.0 mi North 4.6 mph - N/A   Scattered Clouds
10:15 PM 26.6 °F - 23.0 °F 86% 30.24 in 10.0 mi Calm Calm - N/A   Mostly Cloudy
10:35 PM 26.6 °F 22.6 °F 24.8 °F 93% 30.23 in 10.0 mi NW 3.5 mph - N/A   Mostly Cloudy
10:55 PM 23.0 °F - 23.0 °F 100% 30.23 in 10.0 mi Calm Calm - N/A   Mostly Cloudy
11:15 PM 23.0 °F - 23.0 °F 100% 30.23 in 7.0 mi Calm Calm - N/A   Clear
11:35 PM 23.0 °F - 21.2 °F 93% 30.22 in 7.0 mi Calm Calm - N/A   Clear
11:55 PM 21.2 °F - 21.2 °F 100% 30.22 in 5.0 mi Calm Calm - N/A   Clear